[[{"header":{"parameterUnit":"m.s-1","parameterCategory":1,"la1":30.2991,"la2":30.254,"lo1":-89.0895,"lo2":-89.0444,"dy":0.0017,"dx":0.0017,"nx":28,"ny":28,"refTime":"2024-06-13T03:00:00:Z","depth":0,"parameterNumber":2,"parameterNumberName":"U-component_of_WINDS"},"data":[0,0,0,0,0,0,0,0,0,0,0,0,0,0,0,0,0,0,0,0,0,0,0,0,0,0,0,0,0,0,0,0,0,0,0,0,0,0,0,0,0,0,0,0,0,0,0,0,0,0,0,0,0,0,0,0,0,0,1.0903,1.0903,0,1.0912,1.0912,1.0913,1.0867,1.0866,1.0865,1.0863,1.0874,1.0876,1.0877,0,0,0,0,0,0,0,0,0,0,0,0,0,1.0847,1.0848,1.0903,1.0903,1.0903,1.0912,1.0912,1.0913,1.0868,1.0866,1.0864,1.0863,1.0874,1.0876,1.0877,0,0,0,0,0,0,0,0,0,0,0,0,0,1.0865,1.0848,1.0903,1.0882,1.088,1.0912,1.0912,1.0913,1.0868,1.0866,1.0864,1.0862,1.0873,1.0875,1.0878,1.0931,0,0,1.0885,1.0886,0,0,0,0,0,0,0,0,1.0864,1.0867,1.0885,1.0883,1.0881,1.0887,1.0896,1.0919,1.0868,1.0873,1.0863,1.0861,1.088,1.0882,1.0888,1.0932,1.0932,1.0885,1.0886,1.0887,1.0888,0,0,0,0,0,0,0,1.0863,1.0867,1.0907,1.0885,1.0883,1.0872,1.0872,1.0901,1.0887,1.0872,1.0869,1.087,1.0879,1.0886,1.0888,1.0932,1.0885,1.0887,1.0888,1.0889,1.1019,1.1021,0,0,0,0,0,0,1.0864,1.0866,1.0906,1.0907,1.0868,1.0875,1.0875,1.0887,1.0887,1.0885,1.0872,1.0868,1.0883,1.0885,1.0888,1.095,1.0887,1.0889,1.0891,1.1017,1.102,1.1022,0,0,0,0,0,0,1.0863,1.0868,1.0906,1.0886,1.0889,1.0878,1.0891,1.0888,1.0895,1.0887,1.0884,1.0882,1.0881,1.0885,1.092,1.095,1.089,1.0892,1.1015,1.1018,1.1021,1.1075,0,0,0,0,0,0,1.0862,1.0868,1.0889,1.0886,1.0891,1.0939,1.0893,1.089,1.0899,1.0894,1.0895,1.0893,1.088,1.0917,1.0923,1.0952,1.0894,1.1012,1.1016,1.102,1.107,1.1079,1.1087,0,0,0,0,0,1.086,1.0904,1.089,1.0895,1.0916,1.094,1.0943,1.0926,1.0901,1.0922,1.0916,1.0893,1.0945,1.0921,1.0927,1.0957,1.101,1.1015,1.102,1.1067,1.1078,1.1087,0,0,0,0,0,0,1.0911,1.0903,1.0888,1.0932,1.0937,1.0933,1.0958,1.0938,1.0951,1.0946,1.0925,1.0926,1.0965,1.0964,1.0938,1.1008,1.0974,1.098,1.1007,1.1018,1.1026,1.1025,1.0896,0,0,0,0,0,1.0927,1.0947,1.094,1.098,1.0983,1.097,1.098,1.0966,1.0971,1.0973,1.097,1.0976,1.0993,1.1005,1.1021,1.107,1.1069,1.1093,1.1102,1.1109,1.1114,1.1139,1.115,1.1038,1.1037,1.1037,0,0,1.0961,1.0959,1.0974,1.099,1.0992,1.1013,1.0972,1.0997,1.1012,1.0977,1.101,1.1008,1.1013,1.1055,1.1074,1.1056,1.1145,1.1115,1.112,1.1122,1.1145,1.1156,1.1165,1.1041,1.104,1.104,0,0,1.1034,1.1035,1.1068,1.107,1.1074,1.1065,1.1073,1.1071,1.1068,1.1101,1.1075,1.1093,1.1124,1.1128,1.1134,1.1207,1.1187,1.1213,1.1257,1.1282,1.129,1.1298,1.1324,1.1334,1.1219,1.1219,1.1219,0,1.1076,1.1107,1.1087,1.1113,1.1121,1.1089,1.1122,1.1126,1.1135,1.1141,1.1121,1.1158,1.1159,1.1201,1.1219,1.1225,1.1233,1.1213,1.1291,1.1298,1.1305,1.133,1.1339,1.1222,1.1222,1.1221,1.1221,0,1.1158,1.118,1.1206,1.1215,1.1225,1.1255,1.1239,1.1252,1.1238,1.1231,1.1264,1.1264,1.1279,1.1288,1.1274,1.1328,1.1317,1.1294,1.1259,1.1319,1.1342,1.1351,1.1226,1.1225,1.1224,1.1224,0,0,1.1265,1.126,1.127,1.1273,1.1274,1.1291,1.1319,1.1332,1.1344,1.1351,1.1373,1.14,1.1378,1.1385,1.1372,1.1393,1.145,1.1367,1.1367,1.1383,1.1509,1.1527,1.1538,1.1436,1.1438,1.1439,1.1509,0,1.1336,1.1383,1.1365,1.1413,1.1433,1.1402,1.1426,1.1429,1.1423,1.1439,1.1432,1.1451,1.1421,1.1425,1.1445,1.1439,1.1476,1.1434,1.1457,1.1459,1.1457,1.1549,1.1568,1.1633,1.1518,1.1519,1.152,0,1.1425,1.1435,1.1485,1.1481,1.1489,1.1511,1.1521,1.1537,1.154,1.1533,1.1541,1.1522,1.1549,1.1513,1.155,1.1522,1.153,1.1529,1.1531,1.1533,1.1493,1.1554,1.1654,1.1664,1.1534,1.1533,1.1532,0,1.1498,1.1523,1.1556,1.1559,1.1556,1.1572,1.1572,1.1572,1.1581,1.159,1.1596,1.1609,1.1616,1.1626,1.1611,1.1586,1.165,1.1613,1.1645,1.1646,1.166,1.166,1.1764,1.1666,1.1666,1.1666,1.1665,0,1.1579,1.1611,1.1588,1.1608,1.1643,1.1622,1.1657,1.1653,1.1653,1.1672,1.1646,1.1665,1.1644,1.166,1.1649,1.1681,1.1684,1.168,1.1677,1.1682,1.1683,1.1688,1.1683,1.1668,1.1668,1.1667,1.1667,0,1.1666,1.1652,1.1686,1.1679,1.1678,1.1704,1.1699,1.1717,1.1708,1.1733,1.1737,1.1724,1.1742,1.1728,1.1746,1.1738,1.178,1.177,1.1779,1.1776,1.1809,1.1806,1.192,1.1934,1.1827,1.1828,1.1829,0,1.1719,1.1743,1.1738,1.1749,1.1749,1.1767,1.1775,1.1755,1.1766,1.177,1.1788,1.1803,1.1814,1.1844,1.1836,1.185,1.184,1.1879,1.1842,1.1847,1.184,1.1839,1.1841,1.1887,1.1888,1.1889,1.189,0,1.1815,1.1806,1.1819,1.183,1.184,1.1848,1.1853,1.1864,1.1843,1.1856,1.1873,1.1882,1.1899,1.1915,1.1925,1.1924,1.1904,1.1901,1.1909,1.1916,1.192,1.1918,1.1799,1.1899,1.1898,1.1897,1.1897,1.1896,1.1886,1.1905,1.1905,1.192,1.1922,1.1927,1.1944,1.1937,1.1951,1.1963,1.195,1.1971,1.1972,1.1984,1.1986,1.2002,1.1986,1.1998,1.2001,1.2004,1.2009,1.1917,1.2004,1.2003,1.2003,1.2003,1.2003,0,1.198,1.1978,1.1992,1.2,1.2012,1.199,1.1995,1.2006,1.2025,1.2027,1.2038,1.2058,1.2072,1.2065,1.2078,1.2092,1.2083,1.2096,1.2095,1.2095,1.2022,1.2014,1.2103,1.2103,1.2103,1.2103,1.2103,1.2103,1.2031,1.2062,1.2053,1.2084,1.2081,1.2101,1.2105,1.211,1.2112,1.2134,1.2146,1.2141,1.2139,1.2151,1.2164,1.2161,1.2167,1.2184,1.2178,1.211,1.21,1.2091,1.2083,1.2185,1.2185,1.2249,1.225,1.225]},{"header":{"parameterUnit":"m.s-1","parameterCategory":1,"la1":30.2991,"la2":30.254,"lo1":-89.0895,"lo2":-89.0444,"dy":0.0017,"dx":0.0017,"nx":28,"ny":28,"refTime":"2024-06-13T03:00:00:Z","depth":0,"parameterNumber":3,"parameterNumberName":"V-component_of_WINDS"},"data":[0,0,0,0,0,0,0,0,0,0,0,0,0,0,0,0,0,0,0,0,0,0,0,0,0,0,0,0,0,0,0,0,0,0,0,0,0,0,0,0,0,0,0,0,0,0,0,0,0,0,0,0,0,0,0,0,0,0,-1.9821,-1.9822,0,-1.9907,-1.9908,-1.9909,-1.9927,-1.9927,-1.9926,-1.9925,-2.0014,-2.0017,-2.0019,0,0,0,0,0,0,0,0,0,0,0,0,0,-1.9673,-1.9675,-1.9821,-1.9822,-1.9823,-1.9907,-1.9908,-1.991,-1.9927,-1.9927,-1.9926,-1.9925,-2.0013,-2.0016,-2.002,0,0,0,0,0,0,0,0,0,0,0,0,0,-1.9746,-1.9676,-1.9821,-1.9842,-1.9845,-1.9907,-1.9908,-1.991,-1.9928,-1.9927,-1.9926,-1.9925,-2.0012,-2.0016,-2.002,-2.0067,0,0,-2.0034,-2.0036,0,0,0,0,0,0,0,0,-1.9742,-1.9751,-1.9838,-1.9841,-1.9844,-1.9906,-1.9888,-1.9963,-1.9928,-1.9896,-1.9925,-1.9924,-1.9978,-1.9986,-2.0004,-2.0071,-2.0075,-2.0034,-2.0037,-2.0039,-2.004,0,0,0,0,0,0,0,-1.9737,-1.9748,-1.9855,-1.9839,-1.9843,-1.9848,-1.9857,-1.9903,-1.9942,-1.9899,-1.99,-1.991,-1.998,-2.0,-2.0006,-2.0076,-2.0034,-2.0038,-2.0041,-2.0042,-2.0186,-2.0188,0,0,0,0,0,0,-1.9728,-1.9743,-1.9853,-1.9858,-1.9789,-1.9851,-1.9862,-1.9887,-1.9941,-1.9949,-1.9911,-1.9911,-1.9992,-2.0001,-2.0009,-2.0068,-2.0039,-2.0043,-2.0045,-2.0185,-2.0187,-2.0188,0,0,0,0,0,0,-1.9724,-1.9737,-1.9849,-1.9801,-1.9816,-1.9855,-1.9883,-1.9889,-1.9909,-1.9951,-1.9958,-1.9924,-1.9992,-2.0003,-2.0053,-2.0071,-2.0045,-2.0049,-2.0184,-2.0186,-2.0187,-2.0184,0,0,0,0,0,0,-1.972,-1.9736,-1.9754,-1.9801,-1.9818,-1.9891,-1.9884,-1.9891,-1.9916,-1.9917,-1.9964,-1.9971,-1.9992,-2.0046,-2.0057,-2.0076,-2.0052,-2.0182,-2.0185,-2.0187,-2.0183,-2.0186,-2.0188,0,0,0,0,0,-1.9715,-1.975,-1.9755,-1.9768,-1.9841,-1.9892,-1.9901,-1.9924,-1.9918,-1.9936,-1.9963,-1.997,-2.0067,-2.0051,-2.0063,-2.0084,-2.0181,-2.0184,-2.0187,-2.0182,-2.0185,-2.0188,0,0,0,0,0,0,-1.9703,-1.9756,-1.9762,-1.9814,-1.9848,-1.9895,-1.9918,-1.9927,-1.9964,-1.9963,-1.9991,-2.0001,-2.0049,-2.0072,-2.0053,-2.0133,-2.0124,-2.0129,-2.0116,-2.012,-2.0122,-2.0115,-2.0056,0,0,0,0,0,-1.9706,-1.9743,-1.9787,-1.9828,-1.9845,-1.9879,-1.9902,-1.9917,-1.9953,-1.9968,-1.9999,-2.0034,-2.0073,-2.0098,-2.0135,-2.0187,-2.0197,-2.0208,-2.021,-2.0212,-2.0216,-2.0245,-2.025,-2.0197,-2.0197,-2.0197,0,0,-1.9714,-1.9747,-1.9768,-1.9827,-1.9855,-1.9892,-1.9891,-1.993,-1.9958,-1.9974,-2.0022,-2.0046,-2.0088,-2.0138,-2.0162,-2.0159,-2.0234,-2.0216,-2.0217,-2.022,-2.0248,-2.0253,-2.0258,-2.0198,-2.0198,-2.0198,0,0,-1.9746,-1.9775,-1.9812,-1.9841,-1.9884,-1.9906,-1.9915,-1.9961,-1.9977,-2.0027,-2.004,-2.0073,-2.0139,-2.0168,-2.0192,-2.0236,-2.0244,-2.0248,-2.0261,-2.0289,-2.0293,-2.0297,-2.0313,-2.0318,-2.0252,-2.0252,-2.0252,0,-1.9749,-1.9806,-1.983,-1.9869,-1.9894,-1.9911,-1.9949,-1.9976,-2.0029,-2.0046,-2.0042,-2.0125,-2.0154,-2.0212,-2.0223,-2.0242,-2.0253,-2.0242,-2.0291,-2.0295,-2.0299,-2.0314,-2.032,-2.0252,-2.0252,-2.0252,-2.0252,0,-1.9808,-1.9847,-1.9872,-1.9923,-1.9951,-1.9989,-2.002,-2.0046,-2.0059,-2.0082,-2.0132,-2.0168,-2.0213,-2.0228,-2.0241,-2.0288,-2.0284,-2.0285,-2.0277,-2.0304,-2.0318,-2.0324,-2.0252,-2.0252,-2.0252,-2.0252,0,0,-1.9834,-1.9899,-1.9908,-1.9931,-1.998,-2.0011,-2.005,-2.0095,-2.0117,-2.0153,-2.0187,-2.0243,-2.0244,-2.027,-2.0287,-2.0312,-2.0344,-2.0309,-2.0311,-2.0314,-2.0398,-2.0397,-2.0403,-2.035,-2.0351,-2.0352,-2.0395,0,-1.9872,-1.9942,-1.9966,-2.0024,-2.0061,-2.0077,-2.0112,-2.0146,-2.0169,-2.0203,-2.0228,-2.0267,-2.0266,-2.0282,-2.0307,-2.0335,-2.0361,-2.0332,-2.0381,-2.0383,-2.037,-2.0411,-2.041,-2.0448,-2.0401,-2.0402,-2.0402,0,-1.9925,-1.9962,-2.0024,-2.007,-2.0086,-2.0116,-2.0159,-2.0192,-2.0231,-2.0246,-2.0276,-2.0291,-2.0333,-2.0323,-2.0381,-2.0361,-2.0383,-2.0399,-2.0401,-2.0406,-2.0394,-2.0417,-2.0461,-2.0466,-2.0412,-2.0411,-2.041,0,-1.9938,-2.0004,-2.0049,-2.0069,-2.0123,-2.0144,-2.0167,-2.0205,-2.0231,-2.0269,-2.0286,-2.0328,-2.0351,-2.0384,-2.041,-2.04,-2.0466,-2.0458,-2.0479,-2.0479,-2.0492,-2.049,-2.0539,-2.0507,-2.0507,-2.0506,-2.0506,0,-1.9977,-2.0014,-2.0056,-2.0083,-2.0126,-2.0153,-2.0194,-2.0219,-2.0253,-2.0286,-2.0304,-2.0335,-2.0367,-2.0403,-2.0424,-2.0469,-2.0479,-2.0492,-2.0497,-2.0491,-2.0489,-2.0505,-2.0502,-2.0508,-2.0508,-2.0507,-2.0507,0,-1.9998,-2.0027,-2.0078,-2.0125,-2.0137,-2.0166,-2.0207,-2.0235,-2.0259,-2.0301,-2.0312,-2.035,-2.0392,-2.0422,-2.0476,-2.049,-2.0539,-2.0544,-2.0526,-2.0528,-2.0548,-2.0545,-2.0608,-2.0618,-2.0579,-2.0579,-2.058,0,-2.002,-2.0049,-2.01,-2.0123,-2.0147,-2.0184,-2.021,-2.0239,-2.0265,-2.0313,-2.0335,-2.0379,-2.0415,-2.0483,-2.0515,-2.0557,-2.0563,-2.0582,-2.0569,-2.0561,-2.0563,-2.056,-2.0563,-2.0583,-2.0584,-2.0584,-2.0584,0,-2.0058,-2.0071,-2.0108,-2.015,-2.0181,-2.0215,-2.025,-2.0269,-2.0303,-2.0332,-2.0376,-2.0404,-2.046,-2.0504,-2.0549,-2.0574,-2.0585,-2.0588,-2.0595,-2.0588,-2.0576,-2.0583,-2.0531,-2.0586,-2.0586,-2.0586,-2.0586,-2.0586,-2.008,-2.0107,-2.0146,-2.0187,-2.0216,-2.0248,-2.0277,-2.0305,-2.0342,-2.0389,-2.0404,-2.0449,-2.0489,-2.0551,-2.0576,-2.0612,-2.0611,-2.0621,-2.0624,-2.0626,-2.0626,-2.0571,-2.0621,-2.0621,-2.0621,-2.0621,-2.0621,0,-2.0118,-2.0144,-2.0182,-2.023,-2.0262,-2.027,-2.0309,-2.0335,-2.0375,-2.0411,-2.0447,-2.0497,-2.0539,-2.0575,-2.0619,-2.0641,-2.0648,-2.0652,-2.065,-2.0656,-2.0625,-2.0614,-2.0646,-2.0646,-2.0646,-2.0646,-2.0646,-2.0646,-2.0141,-2.0187,-2.0205,-2.0265,-2.0292,-2.0336,-2.0358,-2.0388,-2.0416,-2.0472,-2.0507,-2.053,-2.0566,-2.0613,-2.0652,-2.0662,-2.0677,-2.068,-2.0691,-2.0661,-2.0658,-2.0655,-2.0645,-2.0683,-2.0683,-2.0719,-2.0719,-2.072]}]]